NOAA NWS Hourly Roundups by Site

Regional Weather Roundup for Green Bay, WI

To Select Another Site Choose from List

Select Site:  

000
ASUS43 KGRB 131411
RWRGRB

NORTH-CENTRAL AND NORTHEAST WISCONSIN REGIONAL WEATHER ROUNDUP
NATIONAL WEATHER SERVICE GREEN BAY WI
800 AM CST WED NOV 13 2019

WIZ005-009-010>012-018-019-131500-
NORTH CENTRAL WISCONSIN

CITY           SKY/WX    TMP DP  RH WIND       PRES   REMARKS
IRONWOOD       FLURRIES  13   8  81 S8        29.92S WCI   2
MANITOWISH WTR FLURRIES  11   6  79 S8        29.91R WCI  -1
ARBOR VITAE    FLURRIES  14   9  81 S6        29.92R WCI   5
EAGLE RIVER    LGT SNOW  11   6  80 S8        29.93R WCI  -1
LAND O LAKES   FLURRIES  11   6  81 S7        29.93R WCI   1
RHINELANDER    LGT SNOW  11   6  81 S5        29.94R WCI   3
PHILLIPS       CLOUDY    13   8  79 S8        29.92R WCI   1
ANTIGO         CLOUDY    13   3  65 S13       29.97R WCI  -2
TOMAHAWK       LGT SNOW  13   6  73 S5        29.95R WCI   5
MERRILL        CLOUDY    15   4  61 S8G18     29.98R WCI   4
$$

WIZ013-073-131500-
NORTHEAST WISCONSIN

CITY           SKY/WX    TMP DP  RH WIND       PRES   REMARKS
IRON MOUNTAIN  LGT SNOW  12   7  80 SE8       29.99F VSB 1   WCI   0
MARINETTE      LGT SNOW  18  12  79 S7        30.09F FOG     WCI   8
OCONTO         CLOUDY    18   5  55 S12       30.09S WCI   6
$$

WIZ017-030-035>037-045-131500-
CENTRAL WISCONSIN

CITY           SKY/WX    TMP DP  RH WIND       PRES   REMARKS
MEDFORD        CLOUDY    13   4  67 S13       29.94R WCI  -1
WAUSAU         MOCLDY    14   4  64 S13       29.97R WCI   0
MOSINEE        CLOUDY    16   5  62 S10       29.99S WCI   3
MARSHFIELD     CLOUDY    16   6  65 S9        29.96R WCI   4
WISC RAPIDS    CLOUDY    16   8  71 S10       30.01F WCI   4
STEVENS POINT  MIX PCPN  13   8  81 S7        30.01S WCI   2
WAUPACA        LGT SNOW  17  10  74 S12       30.05S WCI   4
SHAWANO        MOCLDY    18   7  60 S3        30.05F
CLINTONVILLE   CLOUDY    16   7  66 S10G21    30.05S WCI   4
WAUTOMA        LGT SNOW  15   9  76 S8        30.05F WCI   4
$$

WIZ038-039-048-051-131500-
FOX VALLEY

CITY           SKY/WX    TMP DP  RH WIND       PRES   REMARKS
NWS GREEN BAY  CLOUDY    19   6  57 S13       30.09S WCI   6
APPLETON       LGT SNOW  16   1  53 SW17G25   30.05F WCI   0
OSHKOSH        CLOUDY    16   7  67 S17G28    30.08F WCI   0
FOND DU LAC    CLOUDY    19   6  57 S9        30.10S WCI   8
$$

WIZ022-050-052-131500-
EAST CENTRAL WISCONSIN

CITY           SKY/WX    TMP DP  RH WIND       PRES   REMARKS
EPHRAIM        CLOUDY    21   1  42 SW7       30.08S
WASHINGTON ISL CLOUDY    24   9  53 SW13G20   30.08S
STURGEON BAY   CLOUDY    19   2  47 S13       30.09F WCI   6
MANITOWOC      CLOUDY    17   5  59 S16       30.12F WCI   2
SHEBOYGAN      CLOUDY    17   5  59 S16       30.13R WCI   2
$$

LMZ563-521-522-541>543-131500-
LAKESHORE

STATION/POSITION TIME  TEMP    WIND        PRES    VSBY  WAVE
                       AIR SEA DIR/SP/G                  HT/PER
                 (UTC) (F)     (DEG/KT/KT) (MB)    (MI)  (FT/S)
SHEBOYGAN LKSHOR 1400   21     200/ 18/ 21 1021.9R
KEWAUNEE LKSHORE 1330   20     220/ 10/ 16 1019.3F
CHAMBERS ISLAND  1340   21     160/  7/ 16   N/A
MENOMINEE LKSHOR 1318   19 40  200/  9/ 19 1018.7
$$


 

View Past Reports for Green Bay, WI.

Products Courtesy of NOAA-NWS
NWS Information Parsing Script by Ken True at Saratoga Weather - Script by SE Lincoln Weather.